Location: La Pernelle
(49.6188°N, 1.2999°W)
Time: 18:06:03
(UTC+00:00)

Meteor 2-5 Rocket - Visible Passes

Search period start: 21 October 2021 00:00
Search period end: 31 October 2021 00:00
Orbit: 832 x 912 km, 81.2° (Epoch: 20 October)

Date Brightness Start Highest point End Pass type
(mag) Time Alt. Az. Time Alt. Az. Time Alt. Az.
21 Oct 4.7 05:34:09 10° S 05:39:29 53° E 05:44:54 10° NNE visible
21 Oct 6.4 17:55:04 10° NW 17:59:39 25° W 18:04:17 10° SW visible
22 Oct 4.6 05:28:36 10° S 05:33:57 55° E 05:39:24 10° NNE visible
22 Oct 6.4 17:49:36 10° NW 17:54:06 24° W 17:58:41 10° SW visible
23 Oct 4.4 05:23:02 10° S 05:28:26 57° E 05:33:55 10° NNE visible
23 Oct 6.5 17:44:08 10° NW 17:48:35 23° W 17:53:04 10° SW visible
24 Oct 4.3 05:17:29 10° S 05:22:54 60° E 05:28:25 10° NNE visible
24 Oct 6.6 17:38:41 10° NW 17:43:03 23° W 17:47:27 10° SW visible
25 Oct 4.3 05:11:56 10° S 05:17:22 62° E 05:22:55 10° NNE visible
25 Oct 6.6 17:33:14 10° NW 17:37:31 22° W 17:41:50 10° SW visible
26 Oct 4.2 05:06:23 10° S 05:11:51 65° E 05:17:26 10° NNE visible
26 Oct 6.6 17:27:46 10° NW 17:31:58 21° W 17:36:12 10° SW visible
27 Oct 6.9 03:23:10 10° E 03:24:06 10° ENE 03:25:02 10° ENE visible
27 Oct 4.1 05:00:51 10° S 05:06:20 67° E 05:11:56 10° NNE visible
27 Oct 6.6 17:22:20 10° NW 17:26:26 20° W 17:30:35 10° SW visible
28 Oct 6.8 03:17:07 10° E 03:18:33 11° ENE 03:19:59 10° ENE visible
28 Oct 4.0 04:55:18 10° S 05:00:48 70° E 05:06:26 10° NNE visible
28 Oct 6.6 17:16:53 10° NW 17:20:54 19° W 17:24:57 10° SW visible
29 Oct 6.7 03:11:12 10° E 03:12:59 12° ENE 03:14:47 10° ENE visible
29 Oct 3.9 04:49:46 10° S 04:55:17 73° E 05:00:56 10° NNE visible
30 Oct 6.7 03:05:21 10° E 03:07:25 12° ENE 03:09:32 10° ENE visible
30 Oct 3.8 04:44:14 10° S 04:49:46 76° E 04:55:26 10° NNE visible
